Location: Hains Lake
(37.8540°N, 99.8578°W)
Time: 19:55:43
(UTC+00:00)

Courier 1B Rocket - Pass Details

Date: 27 April 2021
Orbit: 920 x 1202 km, 28.2° (Epoch: 05 May)

Event Time Altitude Azimuth Distance (km) Brightness Sun altitude
Rises 03:24:15 0° 261° (W) 3,637 8.6 -21.3°
Reaches altitude 10° 03:27:13 10° 250° (WSW) 2,727 7.7 -21.8°
Maximum altitude 03:32:39 27° 194° (SSW) 1,836 6.2 -22.6°
Enters shadow 03:33:31 27° 182° (S) 1,876 6.1 -22.7°
